Location: Marsån
(66.4167°N, 22.2833°E)
Time: 07:46:32
(UTC+00:00)

Cosmos 1842 Rocket - Pass Details

Date: 24 February 2024
Orbit: 604 x 629 km, 82.5° (Epoch: 20 April)

Event Time Altitude Azimuth Distance (km) Brightness Sun altitude
Rises 16:49:26 0° 340° (NNW) 2,878 7.2 -9.2°
Reaches altitude 10° 16:51:42 10° 345° (NNW) 1,969 6.3 -9.4°
Maximum altitude 16:55:59 56° 64° (ENE) 728 3.6 -9.9°
Drops below altitude 10° 17:00:16 10° 143° (SE) 1,960 5.8 -10.3°
Sets 17:02:31 0° 148° (SSE) 2,863 6.7 -10.5°
